Total_Precipitation_Accumulation
0.01 0.01 0.02 0.02 0.03 0.03 0.04 0.05 0.06 0.06 0.06 0.07 0.09 0.11 0.11 0.11 0.11 0.12 0.12 0.13 0.15 0.16 0.17 0.20 0.22 0.24 0.26 0.29 0.33 0.38 0.44 0.51 0.53 0.44 0.37 0.35 0.35 0.33 0.32 0.29 0.25 0.25 0.25
0.01 0.01 0.02 0.02 0.03 0.03 0.04 0.05 0.05 0.05 0.05 0.06 0.06 0.06 0.06 0.06 0.07 0.08 0.09 0.11 0.13 0.15 0.16 0.19 0.21 0.23 0.27 0.29 0.31 0.33 0.33 0.35 0.38 0.36 0.28 0.24 0.21 0.20 0.19 0.17 0.15 0.15 0.14
0.02 0.03 0.03 0.03 0.03 0.04 0.06 0.06 0.05 0.05 0.05 0.05 0.04 0.04 0.05 0.05 0.06 0.07 0.09 0.11 0.13 0.16 0.19 0.23 0.25 0.27 0.29 0.29 0.28 0.26 0.25 0.23 0.25 0.28 0.21 0.15 0.13 0.11 0.11 0.10 0.09 0.09 0.09
0.03 0.04 0.04 0.05 0.06 0.06 0.06 0.06 0.06 0.05 0.06 0.06 0.05 0.05 0.06 0.08 0.09 0.11 0.13 0.16 0.19 0.21 0.24 0.27 0.29 0.29 0.28 0.25 0.22 0.19 0.19 0.18 0.18 0.20 0.21 0.17 0.13 0.09 0.10 0.10 0.09 0.07 0.07
0.04 0.05 0.06 0.07 0.06 0.07 0.06 0.06 0.06 0.06 0.06 0.07 0.08 0.09 0.11 0.12 0.16 0.19 0.22 0.26 0.30 0.32 0.32 0.30 0.27 0.25 0.20 0.17 0.16 0.15 0.15 0.17 0.23 0.27 0.25 0.19 0.13 0.11 0.10 0.09 0.11 0.09 0.06
0.06 0.07 0.07 0.07 0.07 0.07 0.07 0.08 0.09 0.10 0.10 0.12 0.15 0.19 0.25 0.29 0.36 0.35 0.32 0.31 0.30 0.27 0.24 0.21 0.19 0.17 0.14 0.13 0.13 0.13 0.18 0.26 0.33 0.35 0.29 0.20 0.10 0.06 0.08 0.13 0.18 0.22 0.15
0.06 0.08 0.08 0.08 0.08 0.08 0.10 0.15 0.18 0.20 0.22 0.26 0.30 0.35 0.38 0.40 0.38 0.29 0.24 0.21 0.22 0.21 0.17 0.13 0.10 0.08 0.07 0.05 0.06 0.11 0.16 0.21 0.24 0.23 0.18 0.11 0.10 0.12 0.23 0.33 0.29 0.28 0.17
0.07 0.10 0.12 0.13 0.17 0.20 0.20 0.25 0.31 0.35 0.37 0.40 0.41 0.43 0.42 0.40 0.34 0.25 0.19 0.15 0.13 0.10 0.08 0.06 0.05 0.04 0.04 0.07 0.13 0.18 0.12 0.08 0.07 0.07 0.10 0.13 0.16 0.16 0.23 0.33 0.30 0.22 0.10
0.08 0.11 0.14 0.17 0.24 0.30 0.31 0.34 0.38 0.43 0.46 0.45 0.42 0.38 0.31 0.25 0.20 0.14 0.10 0.07 0.05 0.04 0.03 0.03 0.05 0.05 0.06 0.19 0.27 0.23 0.10 0.03 0.02 0.07 0.12 0.12 0.10 0.09 0.11 0.27 0.38 0.40 0.25
0.19 0.22 0.26 0.31 0.37 0.40 0.40 0.39 0.38 0.36 0.35 0.31 0.26 0.22 0.17 0.13 0.09 0.06 0.04 0.03 0.03 0.02 0.03 0.03 0.03 0.05 0.14 0.26 0.24 0.19 0.10 0.06 0.09 0.06 0.03 0.01 0.01 0.02 0.08 0.23 0.57 0.84 0.59
0.33 0.35 0.35 0.37 0.38 0.38 0.35 0.32 0.29 0.23 0.19 0.15 0.11 0.09 0.06 0.04 0.03 0.02 0.02 0.03 0.05 0.07 0.07 0.03 0.02 0.10 0.21 0.22 0.16 0.08 0.09 0.16 0.12 0.03 0.01 0.01 0.01 0.02 0.04 0.08 0.30 0.84 1.04
0.32 0.32 0.32 0.30 0.27 0.26 0.24 0.20 0.16 0.12 0.08 0.06 0.04 0.02 0.01 0.01 0.00 0.00 0.02 0.06 0.11 0.11 0.07 0.04 0.07 0.16 0.15 0.09 0.04 0.04 0.11 0.10 0.03 0.03 0.03 0.03 0.03 0.04 0.04 0.05 0.10 0.25 0.56
0.25 0.23 0.20 0.17 0.14 0.13 0.10 0.08 0.07 0.05 0.03 0.02 0.01 0.01 0.01 0.00 0.00 0.00 0.02 0.08 0.12 0.10 0.08 0.12 0.14 0.09 0.04 0.01 0.01 0.03 0.04 0.02 0.06 0.12 0.10 0.06 0.04 0.05 0.06 0.09 0.09 0.13 0.21
0.12 0.12 0.09 0.06 0.05 0.04 0.03 0.02 0.01 0.01 0.01 0.01 0.00 0.01 0.01 0.00 0.00 0.01 0.04 0.07 0.08 0.10 0.13 0.13 0.06 0.01 0.00 0.00 0.01 0.00 0.01 0.02 0.11 0.20 0.17 0.09 0.05 0.06 0.10 0.17 0.28 0.30 0.36
0.04 0.03 0.03 0.02 0.01 0.01 0.01 0.01 0.01 0.01 0.01 0.01 0.01 0.01 0.02 0.02 0.02 0.08 0.11 0.10 0.13 0.16 0.14 0.04 0.00 0.00 0.01 0.01 0.00 0.00 0.01 0.02 0.06 0.11 0.18 0.17 0.12 0.11 0.13 0.22 0.41 0.52 0.57
0.01 0.01 0.01 0.01 0.01 0.01 0.01 0.01 0.01 0.01 0.01 0.01 0.01 0.02 0.02 0.03 0.06 0.08 0.10 0.14 0.16 0.12 0.05 0.01 0.01 0.02 0.02 0.02 0.02 0.03 0.02 0.04 0.11 0.20 0.23 0.25 0.27 0.27 0.27 0.29 0.45 0.61 0.62
0.01 0.01 0.01 0.01 0.01 0.01 0.01 0.01 0.01 0.01 0.01 0.01 0.01 0.01 0.02 0.03 0.05 0.06 0.10 0.12 0.07 0.03 0.01 0.03 0.04 0.03 0.03 0.04 0.06 0.08 0.08 0.07 0.16 0.28 0.34 0.36 0.39 0.37 0.38 0.43 0.50 0.55 0.53
0.03 0.03 0.02 0.02 0.02 0.02 0.02 0.02 0.02 0.02 0.01 0.01 0.01 0.01 0.02 0.03 0.04 0.06 0.08 0.05 0.01 0.01 0.03 0.05 0.04 0.04 0.05 0.07 0.10 0.13 0.14 0.13 0.19 0.29 0.35 0.39 0.45 0.50 0.49 0.49 0.53 0.56 0.51
0.03 0.03 0.03 0.03 0.03 0.02 0.02 0.02 0.02 0.02 0.02 0.01 0.01 0.01 0.01 0.02 0.04 0.05 0.04 0.02 0.03 0.04 0.04 0.04 0.03 0.05 0.08 0.11 0.13 0.16 0.21 0.26 0.30 0.40 0.42 0.45 0.51 0.59 0.53 0.48 0.46 0.38 0.31
0.03 0.04 0.04 0.03 0.03 0.03 0.03 0.03 0.03 0.03 0.03 0.03 0.02 0.02 0.02 0.05 0.06 0.02 0.01 0.02 0.04 0.05 0.04 0.04 0.04 0.05 0.11 0.15 0.18 0.21 0.25 0.27 0.33 0.40 0.44 0.49 0.53 0.59 0.57 0.44 0.34 0.29 0.24
0.04 0.04 0.06 0.04 0.03 0.03 0.04 0.04 0.04 0.05 0.04 0.03 0.02 0.02 0.07 0.08 0.05 0.02 0.02 0.03 0.04 0.05 0.06 0.06 0.06 0.09 0.14 0.18 0.21 0.23 0.27 0.31 0.39 0.49 0.51 0.49 0.48 0.44 0.35 0.31 0.27 0.27 0.27
0.05 0.05 0.05 0.05 0.04 0.05 0.06 0.05 0.05 0.05 0.04 0.04 0.03 0.04 0.06 0.05 0.03 0.02 0.03 0.03 0.02 0.03 0.05 0.09 0.10 0.12 0.23 0.35 0.44 0.45 0.36 0.33 0.38 0.48 0.48 0.39 0.33 0.30 0.28 0.27 0.26 0.27 0.27
0.06 0.07 0.07 0.07 0.08 0.09 0.09 0.07 0.06 0.06 0.05 0.05 0.05 0.05 0.05 0.05 0.04 0.04 0.03 0.03 0.03 0.03 0.04 0.09 0.14 0.14 0.19 0.34 0.50 0.72 0.78 0.63 0.55 0.60 0.63 0.50 0.38 0.35 0.37 0.36 0.31 0.28 0.24
0.06 0.07 0.09 0.10 0.11 0.11 0.10 0.08 0.07 0.07 0.07 0.06 0.06 0.05 0.05 0.05 0.05 0.04 0.04 0.04 0.04 0.04 0.05 0.10 0.16 0.18 0.22 0.36 0.48 0.58 0.70 0.80 0.93 0.94 0.89 0.86 0.64 0.46 0.40 0.36 0.29 0.25 0.23
0.08 0.09 0.10 0.10 0.11 0.11 0.11 0.10 0.09 0.08 0.08 0.08 0.07 0.07 0.07 0.06 0.06 0.05 0.05 0.05 0.06 0.05 0.04 0.08 0.16 0.23 0.28 0.36 0.47 0.54 0.56 0.65 0.80 0.86 0.75 0.63 0.51 0.40 0.37 0.34 0.27 0.21 0.19
0.09 0.10 0.10 0.10 0.11 0.11 0.11 0.11 0.10 0.10 0.11 0.10 0.09 0.09 0.08 0.08 0.07 0.06 0.06 0.06 0.07 0.06 0.05 0.06 0.10 0.21 0.30 0.37 0.36 0.42 0.50 0.48 0.40 0.34 0.41 0.46 0.41 0.33 0.31 0.32 0.26 0.21 0.18